| time (UTC) | temp F | wind direction | speed MPH | gust MPH | rain 1hr in | rain 24hr in | rain mn in | humidity % | barometer mb |
| 20260905152811 | 87 | 61 | 0.0 | 0.0 | 0.00 | 0.01 | 0.01 | 84 | 4251.3 |
| 20260905151811 | 86 | 54 | 0.0 | 0.0 | 0.00 | 0.01 | 0.01 | 84 | 4251.3 |
| 20260905150807 | 86 | 55 | 1.0 | 1.0 | 0.00 | 0.01 | 0.01 | 81 | 4251.3 |
| 20260905145804 | 84 | 30 | 0.0 | 1.0 | 0.00 | 0.01 | 0.01 | 86 | 4251.3 |
| 20260905144803 | 83 | 33 | 1.0 | 1.0 | 0.00 | 0.01 | 0.01 | 90 | 4251.4 |
| 20260905143803 | 83 | 33 | 1.0 | 2.0 | 0.00 | 0.01 | 0.01 | 92 | 4251.2 |
| 20260905142803 | 82 | 33 | 1.0 | 1.0 | 0.00 | 0.01 | 0.01 | 95 | 4251.3 |
| 20260905141759 | 82 | 18 | 2.0 | 2.0 | 0.00 | 0.01 | 0.01 | 95 | 4251.3 |
| 20260905140756 | 82 | 227 | 0.0 | 1.0 | 0.00 | 0.01 | 0.01 | 93 | 4251.5 |
| 20260905135754 | 80 | 239 | 0.0 | 0.0 | 0.00 | 0.01 | 0.01 | 94 | 4251.4 |
| 20260905134751 | 80 | 298 | 0.0 | 1.0 | 0.00 | 0.01 | 0.01 | 97 | 4251.6 |
| 20260905133751 | 79 | 295 | 0.0 | 0.0 | 0.00 | 0.01 | 0.01 | 99 | 4251.5 |
| 20260905132745 | 78 | 295 | 0.0 | 0.0 | 0.00 | 0.01 | 0.01 | 99 | 4251.5 |
| 20260905131741 | 78 | 7 | 0.0 | 0.0 | 0.00 | 0.01 | 0.01 | 99 | 4251.8 |
| 20260905130737 | 77 | 311 | 1.0 | 1.0 | 0.00 | 0.01 | 0.01 | 99 | 4251.7 |
| 20260905125732 | 77 | 233 | 1.0 | 1.0 | 0.00 | 0.01 | 0.01 | 99 | 4251.7 |
| 20260905124729 | 76 | 227 | 0.0 | 0.0 | 0.00 | 0.01 | 0.01 | 99 | 4251.8 |
| 20260905123725 | 75 | 206 | 0.0 | 0.0 | 0.00 | 0.01 | 0.01 | 99 | 4251.5 |
| 20260905122722 | 75 | 227 | 0.0 | 0.0 | 0.00 | 0.01 | 0.01 | 99 | 4251.4 |
| 20260905121717 | 74 | 210 | 0.0 | 1.0 | 0.00 | 0.01 | 0.01 | 99 | 4251.4 |
| 20260905120713 | 74 | 215 | 1.0 | 1.0 | 0.00 | 0.01 | 0.01 | 99 | 4251.3 |
| 20260905115707 | 74 | 201 | 0.0 | 1.0 | 0.00 | 0.01 | 0.01 | 99 | 4251.0 |
| 20260905114702 | 74 | 214 | 0.0 | 0.0 | 0.00 | 0.01 | 0.01 | 99 | 4251.1 |
| 20260905113700 | 74 | 215 | 1.0 | 1.0 | 0.00 | 0.01 | 0.01 | 99 | 4251.0 |
| 20260905112656 | 74 | 221 | 1.0 | 1.0 | 0.00 | 0.01 | 0.01 | 99 | 4251.0 |
| 20260905111651 | 74 | 232 | 0.0 | 0.0 | 0.00 | 0.01 | 0.01 | 99 | 4250.6 |
| 20260905110650 | 75 | 203 | 0.0 | 0.0 | 0.00 | 0.01 | 0.01 | 99 | 4250.6 |
| 20260905105646 | 75 | 324 | 0.0 | 0.0 | 0.00 | 0.01 | 0.01 | 99 | 4250.4 |
| 20260905104646 | 77 | 1 | 0.0 | 0.0 | 0.00 | 0.01 | 0.01 | 99 | 4250.2 |
| 20260905103643 | 77 | 359 | 2.0 | 2.0 | 0.00 | 0.01 | 0.01 | 99 | 4250.4 |
| 20260905102640 | 77 | 13 | 2.0 | 2.0 | 0.00 | 0.01 | 0.01 | 99 | 4250.3 |
| 20260905101641 | 75 | 195 | 0.0 | 0.0 | 0.00 | 0.01 | 0.01 | 99 | 4250.3 |
| 20260905100636 | 75 | 196 | 0.0 | 0.0 | 0.00 | 0.01 | 0.01 | 99 | 4250.3 |
| 20260905095630 | 74 | 223 | 0.0 | 0.0 | 0.07 | 0.01 | 0.01 | 99 | 4250.2 |
| 20260905094626 | 74 | 235 | 0.0 | 0.0 | 0.00 | 0.00 | 0.00 | 99 | 4250.1 |
| 20260905093626 | 74 | 238 | 0.0 | 0.0 | 0.00 | 0.00 | 0.00 | 99 | 4250.0 |
| 20260905092622 | 74 | 245 | 1.0 | 1.0 | 0.00 | 0.00 | 0.00 | 99 | 4249.9 |
| 20260905091617 | 74 | 222 | 0.0 | 0.0 | 0.00 | 0.00 | 0.00 | 99 | 4249.8 |
| 20260905090612 | 74 | 235 | 0.0 | 0.0 | 0.00 | 0.00 | 0.00 | 99 | 4249.9 |
| 20260905085612 | 74 | 233 | 1.0 | 2.0 | 0.00 | 0.00 | 0.00 | 99 | 4249.8 |
| 20260905084607 | 74 | 229 | 1.0 | 1.0 | 0.00 | 0.00 | 0.00 | 99 | 4249.8 |
| 20260905083602 | 74 | 218 | 1.0 | 1.0 | 0.00 | 0.00 | 0.00 | 99 | 4250.0 |
| 20260905082600 | 74 | 227 | 1.0 | 2.0 | 0.00 | 0.00 | 0.00 | 99 | 4249.7 |
| 20260905081555 | 74 | 222 | 0.0 | 0.0 | 0.00 | 0.00 | 0.00 | 99 | 4249.8 |
| 20260905080556 | 75 | 228 | 0.0 | 1.0 | 0.00 | 0.00 | 0.00 | 99 | 4249.9 |
| 20260905075550 | 75 | 228 | 0.0 | 1.0 | 0.00 | 0.00 | 0.00 | 99 | 4249.7 |
| 20260905074549 | 75 | 209 | 1.0 | 1.0 | 0.00 | 0.00 | 0.00 | 99 | 4249.6 |
| 20260905073547 | 75 | 215 | 1.0 | 1.0 | 0.00 | 0.00 | 0.00 | 99 | 4249.8 |
| 20260905072547 | 75 | 228 | 1.0 | 1.0 | 0.00 | 0.00 | 0.00 | 99 | 4249.9 |
| 20260905071545 | 75 | 223 | 1.0 | 1.0 | 0.00 | 0.00 | 0.00 | 99 | 4249.9 |
| 20260905070541 | 75 | 217 | 1.0 | 1.0 | 0.00 | 0.00 | 0.00 | 99 | 4249.8 |
| 20260905065540 | 75 | 220 | 1.0 | 1.0 | 0.00 | 0.00 | 0.00 | 99 | 4250.0 |
| 20260905064535 | 75 | 225 | 0.0 | 0.0 | 0.00 | 0.00 | 0.00 | 99 | 4250.2 |
| 20260905063535 | 76 | 219 | 1.0 | 1.0 | 0.00 | 0.00 | 0.00 | 99 | 4250.2 |
| 20260905062532 | 76 | 203 | 0.0 | 0.0 | 0.00 | 0.00 | 0.00 | 99 | 4250.3 |
| 20260905061528 | 76 | 203 | 0.0 | 0.0 | 0.00 | 0.00 | 0.00 | 99 | 4250.3 |
| 20260905060523 | 76 | 216 | 0.0 | 0.0 | 0.00 | 0.00 | 0.00 | 99 | 4250.4 |
| 20260905055523 | 76 | 231 | 0.0 | 0.0 | 0.00 | 0.00 | 0.00 | 99 | 4250.1 |
| 20260905054519 | 76 | 228 | 1.0 | 1.0 | 0.00 | 0.00 | 0.00 | 99 | 4250.2 |
| 20260905053515 | 76 | 221 | 1.0 | 1.0 | 0.00 | 0.00 | 0.00 | 99 | 4250.2 |
| 20260905052510 | 76 | 228 | 1.0 | 1.0 | 0.00 | 0.00 | 0.00 | 99 | 4250.5 |
| 20260905051505 | 76 | 209 | 0.0 | 1.0 | 0.00 | 0.00 | 0.00 | 99 | 4250.4 |
| 20260905050504 | 76 | 215 | 1.0 | 1.0 | 0.00 | 0.00 | 0.00 | 99 | 4250.6 |
| 20260905045501 | 77 | 212 | 0.0 | 0.0 | 0.00 | 0.22 | 0.22 | 99 | 4250.5 |
| 20260905044456 | 77 | 193 | 0.0 | 1.0 | 0.00 | 0.22 | 0.22 | 99 | 4250.4 |
| 20260905043455 | 77 | 228 | 0.0 | 0.0 | 0.00 | 0.22 | 0.22 | 99 | 4250.5 |
| 20260905042456 | 77 | 232 | 0.0 | 0.0 | 0.00 | 0.22 | 0.22 | 99 | 4250.5 |
| 20260905041453 | 77 | 229 | 1.0 | 1.0 | 0.00 | 0.22 | 0.22 | 99 | 4250.3 |
| 20260905040453 | 77 | 230 | 1.0 | 2.0 | 0.00 | 0.22 | 0.22 | 99 | 4250.3 |
| 20260905035454 | 77 | 229 | 1.0 | 1.0 | 0.00 | 0.22 | 0.22 | 99 | 4250.6 |
| 20260905034452 | 77 | 225 | 1.0 | 1.0 | 0.00 | 0.22 | 0.22 | 99 | 4250.5 |
| 20260905033451 | 77 | 225 | 1.0 | 1.0 | 0.00 | 0.22 | 0.22 | 99 | 4250.6 |
| 20260905032447 | 78 | 228 | 1.0 | 1.0 | 0.00 | 0.22 | 0.22 | 99 | 4250.6 |
| 20260905031444 | 77 | 219 | 1.0 | 1.0 | 0.00 | 0.22 | 0.22 | 99 | 4250.6 |
| 20260905030440 | 78 | 228 | 1.0 | 1.0 | 0.00 | 0.22 | 0.22 | 99 | 4250.8 |
| 20260905025440 | 79 | 217 | 0.0 | 0.0 | 0.00 | 0.22 | 0.22 | 99 | 4250.6 |
| 20260905024437 | 78 | 218 | 0.0 | 1.0 | 0.00 | 0.22 | 0.22 | 99 | 4250.7 |
| 20260905023433 | 78 | 220 | 1.0 | 1.0 | 0.00 | 0.22 | 0.22 | 99 | 4250.7 |
| 20260905022428 | 79 | 213 | 0.0 | 0.0 | 0.00 | 0.22 | 0.22 | 99 | 4250.9 |
| 20260905021423 | 79 | 214 | 1.0 | 1.0 | 0.00 | 0.22 | 0.22 | 99 | 4250.9 |
| 20260905020424 | 79 | 228 | 1.0 | 1.0 | 0.00 | 0.22 | 0.22 | 99 | 4250.8 |
| 20260905015422 | 80 | 239 | 1.0 | 2.0 | 0.00 | 0.22 | 0.22 | 99 | 4250.7 |
| 20260905014417 | 80 | 222 | 0.0 | 1.0 | 0.00 | 0.22 | 0.22 | 99 | 4250.7 |
| 20260905013414 | 80 | 234 | 1.0 | 1.0 | 0.00 | 0.22 | 0.22 | 99 | 4250.6 |
| 20260905012410 | 80 | 253 | 1.0 | 1.0 | 0.00 | 0.22 | 0.22 | 99 | 4250.4 |
| 20260905011408 | 80 | 220 | 0.0 | 0.0 | 0.00 | 0.22 | 0.22 | 99 | 4250.5 |
| 20260905010404 | 80 | 243 | 0.0 | 0.0 | 0.00 | 0.22 | 0.22 | 99 | 4250.6 |
| 20260905005402 | 81 | 241 | 1.0 | 1.0 | 0.00 | 0.22 | 0.22 | 99 | 4250.5 |
| 20260905004357 | 80 | 223 | 2.0 | 2.0 | 0.00 | 0.22 | 0.22 | 99 | 4250.4 |
| 20260905003354 | 80 | 237 | 2.0 | 2.0 | 0.00 | 0.22 | 0.22 | 99 | 4250.6 |
| 20260905002349 | 81 | 235 | 1.0 | 1.0 | 0.00 | 0.22 | 0.22 | 99 | 4250.5 |
| 20260905001344 | 81 | 230 | 1.0 | 1.0 | 0.00 | 0.22 | 0.22 | 98 | 4250.2 |
| 20260905000340 | 82 | 49 | 0.0 | 0.0 | 0.00 | 0.22 | 0.22 | 96 | 4250.3 |
| 20260904235337 | 82 | 276 | 0.0 | 0.0 | 0.00 | 0.22 | 0.22 | 97 | 4250.4 |
| 20260904234332 | 82 | 254 | 0.0 | 1.0 | 0.00 | 0.22 | 0.22 | 99 | 4250.6 |
| 20260904233329 | 82 | 250 | 0.0 | 0.0 | 0.00 | 0.22 | 0.22 | 99 | 4250.5 |
| 20260904232328 | 82 | 34 | 0.0 | 1.0 | 0.00 | 0.22 | 0.22 | 97 | 4250.5 |
| 20260904231324 | 82 | 27 | 0.0 | 0.0 | 0.00 | 0.22 | 0.22 | 98 | 4250.2 |
| 20260904230324 | 82 | 15 | 0.0 | 0.0 | 0.00 | 0.22 | 0.22 | 96 | 4250.3 |
| 20260904225324 | 83 | 349 | 2.0 | 2.0 | 0.00 | 0.22 | 0.22 | 94 | 4250.2 |
| 20260904224319 | 83 | 312 | 0.0 | 1.0 | 0.00 | 0.22 | 0.22 | 93 | 4250.0 |
| 20260904223318 | 81 | 312 | 1.0 | 1.0 | 0.00 | 0.22 | 0.22 | 94 | 4250.2 |
| 20260904222315 | 80 | 243 | 1.0 | 1.0 | 0.00 | 0.22 | 0.22 | 98 | 4249.8 |
| 20260904221310 | 79 | 255 | 0.0 | 0.0 | 0.00 | 0.22 | 0.22 | 97 | 4250.2 |
| 20260904220310 | 78 | 237 | 1.0 | 1.0 | 0.00 | 0.22 | 0.22 | 99 | 4250.0 |
| 20260904215306 | 77 | 213 | 3.0 | 3.0 | 0.00 | 0.22 | 0.22 | 96 | 4250.4 |
| 20260904214304 | 77 | 228 | 2.0 | 2.0 | 0.00 | 0.22 | 0.22 | 99 | 4250.5 |
| 20260904213303 | 77 | 233 | 1.0 | 1.0 | 0.59 | 0.22 | 0.22 | 99 | 4250.3 |
| 20260904212259 | 78 | 241 | 4.0 | 5.0 | 0.78 | 0.13 | 0.13 | 90 | 4250.5 |
| 20260904211255 | 80 | 334 | 6.0 | 8.0 | 0.00 | 0.00 | 0.00 | 90 | 4250.6 |
| 20260904210250 | 84 | 292 | 1.0 | 2.0 | 0.00 | 0.00 | 0.00 | 81 | 4250.9 |
| 20260904205248 | 83 | 26 | 10.0 | 14.0 | 0.00 | 0.00 | 0.00 | 82 | 4250.3 |
| 20260904204246 | 87 | 23 | 9.0 | 11.0 | 0.00 | 0.00 | 0.00 | 77 | 4250.2 |
| 20260904203244 | 92 | 355 | 9.0 | 10.0 | 0.00 | 0.00 | 0.00 | 68 | 4250.1 |
| 20260904202242 | 92 | 7 | 7.0 | 8.0 | 0.00 | 0.00 | 0.00 | 71 | 4250.1 |
| 20260904201237 | 92 | 7 | 10.0 | 11.0 | 0.00 | 0.00 | 0.00 | 70 | 4250.2 |
| 20260904200232 | 93 | 337 | 14.0 | 15.0 | 0.00 | 0.00 | 0.00 | 67 | 4250.3 |
| 20260904195230 | 93 | 343 | 13.0 | 15.0 | 0.00 | 0.00 | 0.00 | 70 | 4250.5 |
| 20260904194230 | 99 | 346 | 2.0 | 2.0 | 0.00 | 0.00 | 0.00 | 55 | 4250.6 |
| 20260904193227 | 99 | 342 | 3.0 | 3.0 | 0.00 | 0.00 | 0.00 | 56 | 4250.9 |
| 20260904192223 | 99 | 349 | 2.0 | 2.0 | 0.00 | 0.00 | 0.00 | 55 | 4250.9 |
| 20260904191222 | 100 | 359 | 1.0 | 1.0 | 0.00 | 0.00 | 0.00 | 54 | 4251.0 |
| 20260904190219 | 99 | 350 | 3.0 | 3.0 | 0.00 | 0.00 | 0.00 | 57 | 4251.3 |
| 20260904185216 | 99 | 350 | 3.0 | 3.0 | 0.00 | 0.00 | 0.00 | 57 | 4251.4 |
| 20260904184211 | 99 | 354 | 2.0 | 2.0 | 0.00 | 0.00 | 0.00 | 57 | 4251.5 |
| 20260904183207 | 98 | 331 | 2.0 | 2.0 | 0.00 | 0.00 | 0.00 | 54 | 4251.7 |
| 20260904182202 | 97 | 357 | 3.0 | 3.0 | 0.00 | 0.00 | 0.00 | 57 | 4251.8 |
| 20260904181157 | 97 | 4 | 4.0 | 5.0 | 0.00 | 0.00 | 0.00 | 59 | 4251.7 |
| 20260904180154 | 97 | 359 | 4.0 | 5.0 | 0.00 | 0.00 | 0.00 | 65 | 4252.1 |
| 20260904175152 | 97 | 346 | 2.0 | 2.0 | 0.00 | 0.00 | 0.00 | 57 | 4251.9 |
| 20260904174149 | 97 | 6 | 3.0 | 3.0 | 0.00 | 0.00 | 0.00 | 58 | 4252.1 |
| 20260904173145 | 97 | 338 | 2.0 | 2.0 | 0.00 | 0.00 | 0.00 | 58 | 4252.4 |
| 20260904172141 | 96 | 359 | 3.0 | 3.0 | 0.00 | 0.00 | 0.00 | 64 | 4252.4 |
| 20260904171137 | 96 | 348 | 2.0 | 2.0 | 0.00 | 0.00 | 0.00 | 61 | 4252.6 |
| 20260904170134 | 96 | 354 | 1.0 | 1.0 | 0.00 | 0.00 | 0.00 | 65 | 4252.8 |
| 20260904165133 | 94 | 5 | 2.0 | 2.0 | 0.00 | 0.00 | 0.00 | 69 | 4252.9 |
| 20260904164128 | 93 | 9 | 1.0 | 1.0 | 0.00 | 0.00 | 0.00 | 72 | 4253.0 |
| 20260904163125 | 93 | 9 | 1.0 | 1.0 | 0.00 | 0.00 | 0.00 | 68 | 4252.9 |
| 20260904162125 | 93 | 3 | 0.0 | 1.0 | 0.00 | 0.00 | 0.00 | 72 | 4253.2 |
| 20260904161122 | 92 | 7 | 2.0 | 2.0 | 0.00 | 0.00 | 0.00 | 71 | 4253.2 |
| 20260904160119 | 91 | 11 | 2.0 | 2.0 | 0.00 | 0.00 | 0.00 | 73 | 4253.1 |
| 20260904155119 | 91 | 11 | 2.0 | 3.0 | 0.00 | 0.00 | 0.00 | 78 | 4253.1 |
| 20260904154118 | 90 | 9 | 3.0 | 3.0 | 0.00 | 0.00 | 0.00 | 78 | 4253.4 |
| 20260904153115 | 89 | 15 | 3.0 | 3.0 | 0.00 | 0.00 | 0.00 | 79 | 4253.2 |